Flag for Malta Weather past 2 weeks in Valletta, Malta

Now
54 °F

Clear.


Feels Like: 52 °F
Forecast: 63 / 66 °F
Wind: 7 mph from Northwest

Location: Luqa

Current Time: Dec 20, 2014 at 3:32:47 AM

Latest Report: Dec 20, 2014 at 2:45 AM


Visibility: 10 mi

Pressure: 30.27 "Hg

Humidity: 88%

Dew point: 50 °F

Location of VallettaLocation

Historic Weather in Valletta — Graph

°F

Valletta temperature yesterday

Maximum temperature yesterday: 64 °F (at 11:45 AM)
Minimum temperature yesterday: 52 °F (at 2:45 AM)
Average temperature yesterday: 58 °F

Past Weeks' High & Low Weather Summary

 TemperatureHumidityPressure
High68 °F (Dec 5, 10:45 AM)100% (Dec 19, 12:45 AM)30.30 "Hg (Dec 19, 12:45 AM)
Low50 °F (Dec 11, 3:15 AM)52% (Dec 12, 2:15 PM)29.71 "Hg (Dec 9, 2:45 PM)
Average59 °F74%30.03 "Hg
* Reported Dec 5 2:15 AM — Dec 20 2:15 AM, Valletta, Weather by CustomWeather, © 2014

Note: Actual official high and low records may vary slightly from our data, if they occured in-between our weather recording intervals... More about our weather records

Advertising

Valletta weather history for previous 24 hours

 ConditionsComfort  
Time TempWeatherWind HumidityBarometerVisibility
2:15 AM
Dec 20
54 °FClear.7 mph88%30.27 "Hg10 mi
1:45 AM55 °FClear.8 mph82%30.27 "Hg10 mi
1:15 AM55 °FClear.8 mph82%30.27 "Hg10 mi
12:45 AM55 °FClear.7 mph88%30.27 "Hg10 mi
12:15 AM54 °FClear.6 mph94%30.30 "Hg10 mi
11:45 PM
Dec 19
55 °FPassing clouds.7 mph88%30.30 "HgN/A
11:15 PM55 °FPassing clouds.6 mph88%30.30 "HgN/A
10:45 PM55 °FPassing clouds.3 mph88%30.30 "HgN/A
10:15 PM55 °FPassing clouds.3 mph82%30.30 "HgN/A
9:45 PM55 °FPassing clouds.5 mph82%30.30 "HgN/A
9:15 PM55 °FPassing clouds.6 mph82%30.30 "HgN/A
8:45 PM55 °FPassing clouds.7 mph88%30.30 "HgN/A
8:15 PM55 °FPassing clouds.6 mph82%30.27 "HgN/A
7:45 PM55 °FPassing clouds.7 mph88%30.27 "HgN/A
7:15 PM55 °FPassing clouds.3 mph88%30.27 "HgN/A
6:45 PM57 °FPassing clouds.3 mph82%30.27 "HgN/A
6:15 PM57 °FPassing clouds.5 mph82%30.24 "HgN/A
5:45 PM57 °FPassing clouds.5 mph82%30.24 "HgN/A
5:15 PM59 °FPassing clouds.5 mph77%30.24 "HgN/A
4:45 PM59 °FPassing clouds.6 mph77%30.24 "HgN/A
4:15 PM61 °FPassing clouds.7 mph77%30.24 "HgN/A
3:45 PM63 °FPassing clouds.8 mph73%30.24 "HgN/A
3:15 PM63 °FScattered clouds.8 mph73%30.24 "HgN/A
2:45 PM63 °FScattered clouds.8 mph73%30.24 "HgN/A
2:15 PM63 °FScattered clouds.10 mph77%30.24 "HgN/A
1:45 PM63 °FScattered clouds.10 mph77%30.24 "HgN/A
1:15 PM63 °FScattered clouds.8 mph73%30.24 "HgN/A
12:45 PM64 °FScattered clouds.9 mph64%30.24 "HgN/A
12:15 PM63 °FScattered clouds.10 mph68%30.24 "HgN/A
11:45 AM64 °FScattered clouds.9 mph64%30.24 "HgN/A
11:15 AM63 °FScattered clouds.9 mph73%30.24 "HgN/A
10:45 AM63 °FScattered clouds.9 mph73%30.24 "HgN/A
10:15 AM63 °FScattered clouds.10 mph73%30.24 "HgN/A
9:45 AM63 °FScattered clouds.9 mph73%30.24 "HgN/A
9:15 AM61 °FScattered clouds.10 mph77%30.21 "HgN/A
8:45 AM61 °FScattered clouds.8 mph77%30.21 "HgN/A
8:15 AM59 °FScattered clouds.8 mph77%30.21 "HgN/A
7:15 AM57 °FScattered clouds.8 mph82%30.18 "HgN/A
6:45 AM57 °FPassing clouds.8 mph82%30.18 "HgN/A
6:15 AM57 °FPassing clouds.8 mph82%30.18 "HgN/A
5:45 AM55 °FPassing clouds.7 mph88%30.15 "HgN/A
5:15 AM55 °FPassing clouds.5 mph88%30.15 "HgN/A
4:45 AM54 °FPassing clouds.3 mph94%30.15 "HgN/A
4:15 AM54 °FPassing clouds.3 mph94%30.15 "HgN/A
3:45 AM52 °FClear.3 mph100%30.15 "Hg10 mi
3:15 AM54 °FPassing clouds.2 mph94%30.15 "HgN/A
Weather by CustomWeather, © 2014

See weather overviewHow to use our weather pages